Weather History for North Bend, OR

Change the Weather History Date:

Monday, October 7, 2013

  Actual Average Record
Temperature  
Mean Temperature 56 °F 55 °F  
Max Temperature 63 °F 62 °F 89 °F (1921)
Min Temperature 48 °F 47 °F 32 °F (1927)
Degree Days  
Heating Degree Days 9 10  
Month to date heating degree days 53 70  
Since 1 July heating degree days 339 678  
Cooling Degree Days 0 0  
Month to date cooling degree days 0 0  
Year to date cooling degree days 13 2  
Growing Degree Days 4 (Base 50)    
Moisture  
Dew Point 53 °F    
Average Humidity 88    
Maximum Humidity 100    
Minimum Humidity 69    
Precipitation  
Precipitation 0.19 in 0.10 in 1.13 in (1969)
Month to date precipitation 0.49 0.62  
Year to date precipitation 24.37 39.44  
Sea Level Pressure  
Sea Level Pressure 30.15 in    
Wind  
Wind Speed 5 mph (NW)    
Max Wind Speed 10 mph    
Max Gust Speed 18 mph    
Visibility 9 miles    
Events      
T = Trace of Precipitation, MM = Missing Value Source: NWS Daily Summary

Daily Weather History Graph

Daily Weather History Graph

Search for Another Location

Airport:

Trip Planner

Search our weather history database for the weather conditions in past years. The results will help you decide how hot, cold, wet, or windy it might be!

Date:

Astronomy

Oct. 07, 2013 Rise Set
Actual Time 7:21 AM PDT 6:46 PM PDT
Civil Twilight 6:53 AM PDT 7:15 PM PDT
Nautical Twilight 6:20 AM PDT 7:48 PM PDT
Astronomical Twilight 5:46 AM PDT 8:21 PM PDT
Moon 10:23 AM PDT (10/7) 8:30 PM PDT (10/7)
Length of Visible Light 12h 22m
Length of Day
11h 25m
Waxing Crescent, 9% of the Moon is Illuminated
Oct 7
Waxing Crescent
Oct 11
First Quarter
Oct 18
Full
Oct 26
Last Quarter
Nov 3
New

Hourly Weather History & Observations

Time (PDT) Temp. Dew Point Humidity Pressure Visibility Wind Dir Wind Speed Gust Speed Precip Events Conditions
12:15 AM 55.4 °F 53.6 °F 94% 30.07 in 10.0 mi SE 5.8 mph - N/A   Overcast
12:35 AM 55.4 °F 55.4 °F 100% 30.06 in 10.0 mi SSE 5.8 mph - N/A   Overcast
12:55 AM 55.4 °F 53.6 °F 94% 30.06 in 10.0 mi SE 6.9 mph - N/A   Overcast
1:15 AM 55.4 °F 55.4 °F 100% 30.07 in 5.0 mi Calm Calm - N/A   Overcast
1:35 AM 55.4 °F 55.4 °F 100% 30.08 in 3.0 mi NW 10.4 mph - 0.02 in   Overcast
1:55 AM 55.4 °F 55.4 °F 100% 30.08 in 4.0 mi NW 5.8 mph - 0.06 in   Overcast
2:15 AM 55.4 °F 55.4 °F 100% 30.08 in 5.0 mi Calm Calm - 0.01 in   Overcast
2:35 AM 55.4 °F 53.6 °F 94% 30.08 in 4.0 mi WNW 3.5 mph - 0.04 in   Overcast
2:55 AM 55.4 °F 53.6 °F 94% 30.08 in 5.0 mi Calm Calm - 0.05 in   Overcast
3:15 AM 55.4 °F 55.4 °F 100% 30.07 in 5.0 mi Calm Calm - 0.03 in   Overcast
3:35 AM 55.4 °F 55.4 °F 100% 30.07 in 5.0 mi Calm Calm - 0.04 in   Mostly Cloudy
3:55 AM 55.4 °F 55.4 °F 100% 30.07 in 5.0 mi South 3.5 mph - 0.05 in   Overcast
4:15 AM 55.4 °F 55.4 °F 100% 30.07 in 10.0 mi SSE 5.8 mph - 0.01 in   Overcast
4:35 AM 55.4 °F 55.4 °F 100% 30.07 in 10.0 mi South 4.6 mph - 0.01 in   Overcast
4:55 AM 55.4 °F 55.4 °F 100% 30.08 in 10.0 mi South 4.6 mph - 0.02 in   Overcast
5:15 AM 55.4 °F 55.4 °F 100% 30.08 in 10.0 mi SSE 4.6 mph - N/A   Overcast
5:35 AM 55.4 °F 55.4 °F 100% 30.08 in 7.0 mi SSE 4.6 mph - N/A   Overcast
5:55 AM 55.4 °F 55.4 °F 100% 30.09 in 10.0 mi SSE 5.8 mph - N/A   Overcast
6:15 AM 55.4 °F 55.4 °F 100% 30.09 in 10.0 mi Calm Calm - N/A   Overcast
6:35 AM 55.4 °F 55.4 °F 100% 30.09 in 10.0 mi SSE 4.6 mph - N/A   Mostly Cloudy
6:55 AM 55.4 °F 55.4 °F 100% 30.10 in 10.0 mi SSE 3.5 mph - N/A   Overcast
7:15 AM 55.4 °F 55.4 °F 100% 30.10 in 10.0 mi SE 3.5 mph - N/A   Overcast
7:35 AM 53.6 °F 53.6 °F 100% 30.11 in 10.0 mi Calm Calm - N/A   Mostly Cloudy
7:55 AM 53.6 °F 53.6 °F 100% 30.12 in 10.0 mi Calm Calm - N/A   Mostly Cloudy
8:15 AM 53.6 °F 53.6 °F 100% 30.12 in 10.0 mi SSE 3.5 mph - N/A   Overcast
8:35 AM 55.4 °F 55.4 °F 100% 30.13 in 10.0 mi SE 3.5 mph - 0.01 in   Mostly Cloudy
8:55 AM 53.6 °F 53.6 °F 100% 30.14 in 10.0 mi SSE 3.5 mph - 0.01 in   Scattered Clouds
9:15 AM 57.2 °F 55.4 °F 94% 30.14 in 10.0 mi Calm Calm - N/A   Mostly Cloudy
9:35 AM 57.2 °F 55.4 °F 94% 30.15 in 10.0 mi NW 12.7 mph 18.4 mph N/A   Overcast
9:55 AM 57.2 °F 53.6 °F 88% 30.15 in 10.0 mi NNW 9.2 mph - N/A   Overcast
10:15 AM 57.2 °F 51.8 °F 82% 30.16 in 10.0 mi NW 8.1 mph - N/A   Overcast
10:35 AM 57.2 °F 51.8 °F 82% 30.17 in 10.0 mi NNW 6.9 mph - N/A   Overcast
10:55 AM 57.2 °F 51.8 °F 82% 30.17 in 10.0 mi NW 6.9 mph - N/A   Overcast
11:15 AM 59.0 °F 51.8 °F 77% 30.18 in 10.0 mi NNW 5.8 mph - N/A   Overcast
11:35 AM 59.0 °F 51.8 °F 77% 30.18 in 10.0 mi NW 4.6 mph - N/A   Overcast
11:55 AM 60.8 °F 51.8 °F 72% 30.18 in 10.0 mi NW 6.9 mph - N/A   Overcast
12:15 PM 60.8 °F 50.0 °F 68% 30.18 in 10.0 mi NW 8.1 mph - N/A   Scattered Clouds
12:35 PM 60.8 °F 51.8 °F 72% 30.19 in 10.0 mi NW 8.1 mph - N/A   Clear
12:55 PM 60.8 °F 51.8 °F 72% 30.19 in 10.0 mi WNW 9.2 mph - N/A   Clear
1:15 PM 60.8 °F 51.8 °F 72% 30.18 in 10.0 mi WNW 8.1 mph - N/A   Clear
1:35 PM 60.8 °F 51.8 °F 72% 30.18 in 10.0 mi NW 8.1 mph - N/A   Partly Cloudy
1:55 PM 60.8 °F 51.8 °F 72% 30.18 in 10.0 mi West 8.1 mph - N/A   Scattered Clouds
2:15 PM 60.8 °F 51.8 °F 72% 30.18 in 10.0 mi NW 9.2 mph - N/A   Mostly Cloudy
2:35 PM 60.8 °F 50.0 °F 68% 30.18 in 10.0 mi WNW 9.2 mph - N/A   Partly Cloudy
2:55 PM 60.8 °F 50.0 °F 68% 30.19 in 10.0 mi NNW 8.1 mph - N/A   Clear
3:15 PM 60.8 °F 50.0 °F 68% 30.20 in 10.0 mi NW 10.4 mph - N/A   Partly Cloudy
3:35 PM 60.8 °F 50.0 °F 68% 30.20 in 10.0 mi NNW 6.9 mph - N/A   Partly Cloudy
3:55 PM 60.8 °F 50.0 °F 68% 30.20 in 10.0 mi WNW 5.8 mph - N/A   Partly Cloudy
4:15 PM 60.8 °F 50.0 °F 68% 30.19 in 10.0 mi NNW 4.6 mph - N/A   Mostly Cloudy
4:35 PM 60.8 °F 50.0 °F 68% 30.19 in 10.0 mi NNW 9.2 mph - N/A   Mostly Cloudy
4:55 PM 60.8 °F 51.8 °F 72% 30.19 in 10.0 mi NNW 10.4 mph - N/A   Scattered Clouds
5:15 PM 60.8 °F 51.8 °F 72% 30.19 in 10.0 mi NNW 8.1 mph - N/A   Partly Cloudy
5:35 PM 60.8 °F 50.0 °F 68% 30.19 in 10.0 mi North 8.1 mph - N/A   Clear
5:55 PM 59.0 °F 51.8 °F 77% 30.19 in 10.0 mi North 9.2 mph - N/A   Clear
6:15 PM 57.2 °F 51.8 °F 82% 30.19 in 10.0 mi NNW 5.8 mph - N/A   Clear
6:35 PM 57.2 °F 51.8 °F 82% 30.19 in 10.0 mi NNW 4.6 mph - N/A   Scattered Clouds
6:55 PM 57.2 °F 51.8 °F 82% 30.19 in 10.0 mi NNW 3.5 mph - N/A   Mostly Cloudy
7:15 PM 57.2 °F 51.8 °F 82% 30.19 in 10.0 mi NNW 3.5 mph - N/A   Overcast
7:35 PM 57.2 °F 51.8 °F 82% 30.19 in 10.0 mi NNW 3.5 mph - N/A   Overcast
7:55 PM 55.4 °F 53.6 °F 94% 30.19 in 10.0 mi North 3.5 mph - N/A   Overcast
8:15 PM 55.4 °F 51.8 °F 88% 30.19 in 10.0 mi NNW 3.5 mph - N/A   Scattered Clouds
8:35 PM 55.4 °F 53.6 °F 94% 30.20 in 10.0 mi Calm Calm - N/A   Mostly Cloudy
8:55 PM 55.4 °F 53.6 °F 94% 30.20 in 10.0 mi NNE 3.5 mph - N/A   Overcast
9:15 PM 55.4 °F 53.6 °F 94% 30.20 in 10.0 mi Calm Calm - N/A   Overcast
9:35 PM 53.6 °F 53.6 °F 100% 30.21 in 10.0 mi Calm Calm - N/A   Overcast
9:55 PM 51.8 °F 51.8 °F 100% 30.20 in 10.0 mi SSE 4.6 mph - N/A   Mostly Cloudy
10:15 PM 51.8 °F 51.8 °F 100% 30.20 in 10.0 mi SE 4.6 mph - N/A   Partly Cloudy
10:35 PM 51.8 °F 51.8 °F 100% 30.20 in 10.0 mi SE 6.9 mph - N/A   Partly Cloudy
10:55 PM 50.0 °F 48.2 °F 94% 30.21 in 10.0 mi SE 4.6 mph - N/A   Scattered Clouds
11:15 PM 48.2 °F 48.2 °F 100% 30.21 in 10.0 mi SE 3.5 mph - N/A   Partly Cloudy
11:35 PM 50.0 °F 50.0 °F 100% 30.21 in 10.0 mi SE 4.6 mph - N/A   Mostly Cloudy
11:55 PM 50.0 °F 50.0 °F 100% 30.21 in 10.0 mi SE 3.5 mph - N/A   Overcast